Location: Newark
(44.4156°N, 12.1972°E)
Time: 09:46:59
(UTC+00:00)

STARLINK-1104 - Pass Details

Date: 31 January 2020
Orbit: 549 x 550 km, 53.0° (Epoch: 22 February)

Event Time Altitude Azimuth Distance (km) Brightness Sun altitude
Rises 16:38:50 0° 304° (NW) 2,723 7.7 -4.2°
Reaches altitude 10° 16:41:08 10° 310° (NW) 1,828 6.7 -4.6°
Maximum altitude 16:45:10 48° 25° (NNE) 728 4.0 -5.3°
Drops below altitude 10° 16:49:11 10° 101° (E) 1,823 5.7 -6.0°
Enters shadow 16:50:43 - 105° (ESE) 2,419 6.4 -6.2°
